Regional Weather Roundup
Issued by NWS

Home | Current Version | Previous Version | Text Only | Print | Product List | Glossary On
Versions: 1 2 3 4 5 6 7 8 9 10 11 12 13 14 15 16 17 18 19 20 21 22 23 24 25 26 27 28 29 30 31 32 33 34 35 36 37 38 39 40 41 42 43 44 45 46 47 48 49 50
000
ASUS43 KTOP 130608
RWRKS

WEATHER ROUNDUP FOR KANSAS
NATIONAL WEATHER SERVICE GOODLAND KS
100 AM CDT THU AUG 13 2020

NOTE:  "FAIR" INDICATES FEW OR NO CLOUDS BELOW 12,000 FEET WITH NO
SIGNIFICANT WEATHER AND/OR OBSTRUCTIONS TO VISIBILITY.

KSZ001>006-013>018-027>032-041>047-130700-
NORTHWEST KANSAS

CITY           SKY/WX    TMP DP  RH WIND       PRES   REMARKS
GOODLAND       MOCLDY    70  67  90 S7        30.06R
6HR MIN TEMP:  70; 6HR MAX TEMP:  82;

HAYS           CLOUDY    75  72  90 SE8       29.96F
HILL CITY      MOCLDY    72  69  90 E3        29.97F
6HR MIN TEMP:  70; 6HR MAX TEMP:  87;

RUSSELL        MOCLDY    75  71  87 SE8       29.94F
6HR MIN TEMP:  75; 6HR MAX TEMP:  84;

$$

KSZ061>065-074>080-084>089-130700-
SOUTHWEST KANSAS

CITY           SKY/WX    TMP DP  RH WIND       PRES   REMARKS
DODGE CITY     CLOUDY    75  73  93 E8        29.96F
6HR MIN TEMP:  73; 6HR MAX TEMP:  83;

ELKHART        CLEAR     72  70  95 E6        30.01R
GARDEN CITY    PTCLDY    72  70  93 E8        29.98F
6HR MIN TEMP:  72; 6HR MAX TEMP:  84;

GREAT BEND     CLEAR     75  73  93 SE9       29.96S
LIBERAL        PTCLDY    73  71  93 E8        29.97R
PRATT          CLOUDY    77  75  95 SE10      29.95S
6HR MIN TEMP:  77; 6HR MAX TEMP:  83;

$$

KSZ066>073-081>083-090>101-130700-
SOUTHEAST KANSAS

CITY           SKY/WX    TMP DP  RH WIND       PRES   REMARKS
CHANUTE        CLEAR     77  69  76 SE8       29.96F
6HR MIN TEMP:  76; 6HR MAX TEMP:  89;

COFFEYVILLE    PTCLDY    75  72  90 SE6       29.94F
6HR MIN TEMP:  75; 6HR MAX TEMP:  88;

HUTCHINSON     CLEAR     76  71  85 E8        29.94F
6HR MIN TEMP:  76; 6HR MAX TEMP:  85;

MEDICINE LODGE   N/A     77  74  90 SE9G17    29.91S
NEWTON         CLOUDY    77  71  82 SE12      29.97S THUNDER
PARSONS        CLEAR     77  71  82 SE3       29.97F
6HR MIN TEMP:  76; 6HR MAX TEMP:  88;

WICHITA INTL   CLOUDY    78  72  81 SE13      29.94R
6HR MIN TEMP:  78; 6HR MAX TEMP:  87; 6HR PCP:  0.03;

WICHITA JABRA  CLOUDY    77  72  84 SE9       29.95R
6HR MIN TEMP:  77; 6HR MAX TEMP:  86;

WICHITA MCCONL CLOUDY    76  70  81 S21       29.93
WINFIELD       TSTM      73  70  90 SE14G21   29.98R
6HR MIN TEMP:  73; 6HR MAX TEMP:  86; 6HR PCP:  0.21;

$$

KSZ007>012-019>026-033>040-048>060-102>105-130700-
NORTHEAST KANSAS

CITY           SKY/WX    TMP DP  RH WIND       PRES   REMARKS
CONCORDIA      PTCLDY    74  71  91 E6        29.96F
6HR MIN TEMP:  74; 6HR MAX TEMP:  84;

EMPORIA        PTCLDY    76  69  79 SE8       29.95F
6HR MIN TEMP:  76; 6HR MAX TEMP:  87; 6HR PCP: TRACE;

LAWRENCE       CLEAR     72  71  97 SE3       29.97S
6HR MIN TEMP:  72; 6HR MAX TEMP:  84;

MANHATTAN      MOCLDY    74  70  87 NE6       29.96R
6HR MIN TEMP:  74; 6HR MAX TEMP:  83;

MARYSVILLE     CLEAR     73  72  94 SE8       29.97F
OLATHE IND     CLEAR     76  69  79 SE9       29.99F
6HR MIN TEMP:  76; 6HR MAX TEMP:  83; 6HR PCP: TRACE;

OLATHE EXE     CLEAR     76  70  82 SE8       29.99F
6HR MIN TEMP:  76; 6HR MAX TEMP:  82;

SALINA         CLEAR     76  70  82 SE5       29.94S
6HR MIN TEMP:  76; 6HR MAX TEMP:  88;

TOPEKA BILLARD CLEAR     74  69  85 E5        29.96S
6HR MIN TEMP:  74; 6HR MAX TEMP:  84;

TOPEKA FORBES  CLEAR     74  71  91 E6        29.97S
6HR MIN TEMP:  74; 6HR MAX TEMP:  83; 6HR PCP: TRACE;

$$




USA.gov is the U.S. government's official web portal to all federal, state and local government web resources and services.